<?xml version="1.0" encoding="UTF-8" standalone="no" ?>
<gpx xmlns="http://www.topografix.com/GPX/1/1" xmlns:xsi="http://www.w3.org/2001/XMLSchema-instance" xsi:schemaLocation="http://www.topografix.com/GPX/1/1 http://www.topografix.com/GPX/1/1/gpx.xsd" version="1.1" creator="VisuGPX - https://www.visugpx.com">
  <metadata>
    <name>Mont Charvet depuis les Confins</name>
  </metadata>
  <wpt lat="45.92025" lon="6.48028">
    <ele>1415.9</ele>
    <name><![CDATA[Parking du Golf]]></name>
  </wpt>
  <wpt lat="45.92157" lon="6.48867">
    <ele>1458.9</ele>
    <name><![CDATA[La Lanchette - Piste]]></name>
  </wpt>
  <wpt lat="45.93483" lon="6.50404">
    <ele>1545.9</ele>
    <name><![CDATA[La Pierre Marquée]]></name>
  </wpt>
  <wpt lat="45.93892" lon="6.50968">
    <ele>1599.8</ele>
    <name><![CDATA[La Bombardellaz - Croisement de la boucle]]></name>
  </wpt>
  <wpt lat="45.94041" lon="6.52867">
    <ele>2001.5</ele>
    <name><![CDATA[Combe du Mont Charvet]]></name>
  </wpt>
  <wpt lat="45.94067" lon="6.53966">
    <ele>2376.2</ele>
    <name><![CDATA[Arrivée en crête]]></name>
  </wpt>
  <wpt lat="45.94255" lon="6.53879">
    <ele>2498.4</ele>
    <name><![CDATA[Sommet du]]></name>
  </wpt>
  <wpt lat="45.94749" lon="6.52167">
    <ele>1627.3</ele>
    <name><![CDATA[Jonction GRP®]]></name>
  </wpt>
  <wpt lat="45.93911" lon="6.50971">
    <ele>1591.9</ele>
    <name><![CDATA[Les chalets/Oratoire]]></name>
  </wpt>
  <wpt lat="45.92025" lon="6.48025">
    <ele>1415.8</ele>
    <name><![CDATA[Parking du Golf]]></name>
  </wpt>
  <trk>
    <name><![CDATA[Mont Charvet depuis les Confins]]></name>
    <extensions>
      <line xmlns="http://www.topografix.com/GPX/gpx_style/0/2">
        <color>0000FF</color>
        <width>4</width>
      </line>
    </extensions>
    <trkseg>
      <trkpt lat="45.92025" lon="6.48028">
        <ele>1415</ele>
        <time>2021-09-07T22:55:24+02:00</time>
      </trkpt>
      <trkpt lat="45.92032" lon="6.48054">
        <ele>1416</ele>
        <time>2021-09-07T22:55:29+02:00</time>
      </trkpt>
      <trkpt lat="45.92053" lon="6.48078">
        <ele>1418</ele>
        <time>2021-09-07T22:55:34+02:00</time>
      </trkpt>
      <trkpt lat="45.92057" lon="6.48106">
        <ele>1419</ele>
        <time>2021-09-07T22:55:39+02:00</time>
      </trkpt>
      <trkpt lat="45.92055" lon="6.48148">
        <ele>1422</ele>
        <time>2021-09-07T22:55:44+02:00</time>
      </trkpt>
      <trkpt lat="45.92066" lon="6.48211">
        <ele>1428</ele>
        <time>2021-09-07T22:55:49+02:00</time>
      </trkpt>
      <trkpt lat="45.92085" lon="6.48296">
        <ele>1438</ele>
        <time>2021-09-07T22:55:54+02:00</time>
      </trkpt>
      <trkpt lat="45.92081" lon="6.48355">
        <ele>1445</ele>
        <time>2021-09-07T22:55:59+02:00</time>
      </trkpt>
      <trkpt lat="45.92079" lon="6.48461">
        <ele>1457</ele>
        <time>2021-09-07T22:56:04+02:00</time>
      </trkpt>
      <trkpt lat="45.92079" lon="6.48517">
        <ele>1465</ele>
        <time>2021-09-07T22:56:09+02:00</time>
      </trkpt>
      <trkpt lat="45.92088" lon="6.48537">
        <ele>1469</ele>
        <time>2021-09-07T22:56:14+02:00</time>
      </trkpt>
      <trkpt lat="45.92108" lon="6.48532">
        <ele>1467</ele>
        <time>2021-09-07T22:56:19+02:00</time>
      </trkpt>
      <trkpt lat="45.92123" lon="6.48535">
        <ele>1465</ele>
        <time>2021-09-07T22:56:24+02:00</time>
      </trkpt>
      <trkpt lat="45.92132" lon="6.48544">
        <ele>1465</ele>
        <time>2021-09-07T22:56:29+02:00</time>
      </trkpt>
      <trkpt lat="45.92141" lon="6.48565">
        <ele>1463</ele>
        <time>2021-09-07T22:56:34+02:00</time>
      </trkpt>
      <trkpt lat="45.92117" lon="6.48647">
        <ele>1470</ele>
        <time>2021-09-07T22:56:39+02:00</time>
      </trkpt>
      <trkpt lat="45.9213" lon="6.48682">
        <ele>1467</ele>
        <time>2021-09-07T22:56:44+02:00</time>
      </trkpt>
      <trkpt lat="45.92151" lon="6.48707">
        <ele>1461</ele>
        <time>2021-09-07T22:56:49+02:00</time>
      </trkpt>
      <trkpt lat="45.92174" lon="6.48779">
        <ele>1456</ele>
        <time>2021-09-07T22:56:54+02:00</time>
      </trkpt>
      <trkpt lat="45.92178" lon="6.48812">
        <ele>1454</ele>
        <time>2021-09-07T22:56:59+02:00</time>
      </trkpt>
      <trkpt lat="45.92157" lon="6.48867">
        <ele>1455</ele>
        <time>2021-09-07T22:57:04+02:00</time>
      </trkpt>
      <trkpt lat="45.9217" lon="6.4889">
        <ele>1454</ele>
        <time>2021-09-07T22:57:09+02:00</time>
      </trkpt>
      <trkpt lat="45.92219" lon="6.48948">
        <ele>1455</ele>
        <time>2021-09-07T22:57:14+02:00</time>
      </trkpt>
      <trkpt lat="45.92238" lon="6.48988">
        <ele>1459</ele>
        <time>2021-09-07T22:57:19+02:00</time>
      </trkpt>
      <trkpt lat="45.92285" lon="6.49048">
        <ele>1466</ele>
        <time>2021-09-07T22:57:24+02:00</time>
      </trkpt>
      <trkpt lat="45.92336" lon="6.49074">
        <ele>1474</ele>
        <time>2021-09-07T22:57:29+02:00</time>
      </trkpt>
      <trkpt lat="45.92368" lon="6.49112">
        <ele>1480</ele>
        <time>2021-09-07T22:57:34+02:00</time>
      </trkpt>
      <trkpt lat="45.92437" lon="6.49113">
        <ele>1488</ele>
        <time>2021-09-07T22:57:39+02:00</time>
      </trkpt>
      <trkpt lat="45.92486" lon="6.49185">
        <ele>1492</ele>
        <time>2021-09-07T22:57:44+02:00</time>
      </trkpt>
      <trkpt lat="45.92558" lon="6.49219">
        <ele>1492</ele>
        <time>2021-09-07T22:57:49+02:00</time>
      </trkpt>
      <trkpt lat="45.92585" lon="6.49222">
        <ele>1488</ele>
        <time>2021-09-07T22:57:54+02:00</time>
      </trkpt>
      <trkpt lat="45.92617" lon="6.49229">
        <ele>1484</ele>
        <time>2021-09-07T22:57:59+02:00</time>
      </trkpt>
      <trkpt lat="45.92636" lon="6.49252">
        <ele>1487</ele>
        <time>2021-09-07T22:58:04+02:00</time>
      </trkpt>
      <trkpt lat="45.92693" lon="6.49288">
        <ele>1484</ele>
        <time>2021-09-07T22:58:09+02:00</time>
      </trkpt>
      <trkpt lat="45.9271" lon="6.49343">
        <ele>1489</ele>
        <time>2021-09-07T22:58:14+02:00</time>
      </trkpt>
      <trkpt lat="45.92724" lon="6.49387">
        <ele>1489</ele>
        <time>2021-09-07T22:58:19+02:00</time>
      </trkpt>
      <trkpt lat="45.92746" lon="6.4945">
        <ele>1490</ele>
        <time>2021-09-07T22:58:24+02:00</time>
      </trkpt>
      <trkpt lat="45.9277" lon="6.49481">
        <ele>1489</ele>
        <time>2021-09-07T22:58:29+02:00</time>
      </trkpt>
      <trkpt lat="45.92804" lon="6.49502">
        <ele>1482</ele>
        <time>2021-09-07T22:58:34+02:00</time>
      </trkpt>
      <trkpt lat="45.9283" lon="6.49512">
        <ele>1478</ele>
        <time>2021-09-07T22:58:39+02:00</time>
      </trkpt>
      <trkpt lat="45.92874" lon="6.49578">
        <ele>1470</ele>
        <time>2021-09-07T22:58:44+02:00</time>
      </trkpt>
      <trkpt lat="45.929" lon="6.49605">
        <ele>1470</ele>
        <time>2021-09-07T22:58:49+02:00</time>
      </trkpt>
      <trkpt lat="45.92938" lon="6.49631">
        <ele>1470</ele>
        <time>2021-09-07T22:58:54+02:00</time>
      </trkpt>
      <trkpt lat="45.9299" lon="6.49693">
        <ele>1470</ele>
        <time>2021-09-07T22:58:59+02:00</time>
      </trkpt>
      <trkpt lat="45.93017" lon="6.49709">
        <ele>1470</ele>
        <time>2021-09-07T22:59:04+02:00</time>
      </trkpt>
      <trkpt lat="45.93062" lon="6.49736">
        <ele>1470</ele>
        <time>2021-09-07T22:59:09+02:00</time>
      </trkpt>
      <trkpt lat="45.9308" lon="6.49752">
        <ele>1472</ele>
        <time>2021-09-07T22:59:14+02:00</time>
      </trkpt>
      <trkpt lat="45.931" lon="6.49783">
        <ele>1476</ele>
        <time>2021-09-07T22:59:19+02:00</time>
      </trkpt>
      <trkpt lat="45.93116" lon="6.49806">
        <ele>1478</ele>
        <time>2021-09-07T22:59:24+02:00</time>
      </trkpt>
      <trkpt lat="45.93119" lon="6.49854">
        <ele>1476</ele>
        <time>2021-09-07T22:59:29+02:00</time>
      </trkpt>
      <trkpt lat="45.93128" lon="6.49893">
        <ele>1477</ele>
        <time>2021-09-07T22:59:34+02:00</time>
      </trkpt>
      <trkpt lat="45.93133" lon="6.49916">
        <ele>1478</ele>
        <time>2021-09-07T22:59:39+02:00</time>
      </trkpt>
      <trkpt lat="45.93154" lon="6.49939">
        <ele>1482</ele>
        <time>2021-09-07T22:59:44+02:00</time>
      </trkpt>
      <trkpt lat="45.93171" lon="6.49946">
        <ele>1485</ele>
        <time>2021-09-07T22:59:49+02:00</time>
      </trkpt>
      <trkpt lat="45.93194" lon="6.49969">
        <ele>1489</ele>
        <time>2021-09-07T22:59:54+02:00</time>
      </trkpt>
      <trkpt lat="45.93208" lon="6.49998">
        <ele>1491</ele>
        <time>2021-09-07T22:59:59+02:00</time>
      </trkpt>
      <trkpt lat="45.9323" lon="6.50014">
        <ele>1494</ele>
        <time>2021-09-07T23:00:04+02:00</time>
      </trkpt>
      <trkpt lat="45.93261" lon="6.50049">
        <ele>1493</ele>
        <time>2021-09-07T23:00:09+02:00</time>
      </trkpt>
      <trkpt lat="45.93287" lon="6.50072">
        <ele>1491</ele>
        <time>2021-09-07T23:00:14+02:00</time>
      </trkpt>
      <trkpt lat="45.93308" lon="6.50105">
        <ele>1492</ele>
        <time>2021-09-07T23:00:19+02:00</time>
      </trkpt>
      <trkpt lat="45.93314" lon="6.50105">
        <ele>1492</ele>
        <time>2021-09-07T23:00:24+02:00</time>
      </trkpt>
      <trkpt lat="45.93328" lon="6.50123">
        <ele>1496</ele>
        <time>2021-09-07T23:00:29+02:00</time>
      </trkpt>
      <trkpt lat="45.93344" lon="6.50134">
        <ele>1498</ele>
        <time>2021-09-07T23:00:34+02:00</time>
      </trkpt>
      <trkpt lat="45.93352" lon="6.50159">
        <ele>1502</ele>
        <time>2021-09-07T23:00:39+02:00</time>
      </trkpt>
      <trkpt lat="45.93355" lon="6.50165">
        <ele>1502</ele>
        <time>2021-09-07T23:00:44+02:00</time>
      </trkpt>
      <trkpt lat="45.93371" lon="6.50177">
        <ele>1504</ele>
        <time>2021-09-07T23:00:49+02:00</time>
      </trkpt>
      <trkpt lat="45.93376" lon="6.50187">
        <ele>1506</ele>
        <time>2021-09-07T23:00:54+02:00</time>
      </trkpt>
      <trkpt lat="45.93391" lon="6.50198">
        <ele>1509</ele>
        <time>2021-09-07T23:00:59+02:00</time>
      </trkpt>
      <trkpt lat="45.93403" lon="6.50216">
        <ele>1510</ele>
        <time>2021-09-07T23:01:04+02:00</time>
      </trkpt>
      <trkpt lat="45.93414" lon="6.5024">
        <ele>1512</ele>
        <time>2021-09-07T23:01:09+02:00</time>
      </trkpt>
      <trkpt lat="45.93422" lon="6.50249">
        <ele>1513</ele>
        <time>2021-09-07T23:01:14+02:00</time>
      </trkpt>
      <trkpt lat="45.93449" lon="6.50266">
        <ele>1518</ele>
        <time>2021-09-07T23:01:19+02:00</time>
      </trkpt>
      <trkpt lat="45.93464" lon="6.50297">
        <ele>1524</ele>
        <time>2021-09-07T23:01:24+02:00</time>
      </trkpt>
      <trkpt lat="45.93467" lon="6.50323">
        <ele>1528</ele>
        <time>2021-09-07T23:01:29+02:00</time>
      </trkpt>
      <trkpt lat="45.93474" lon="6.50347">
        <ele>1531</ele>
        <time>2021-09-07T23:01:34+02:00</time>
      </trkpt>
      <trkpt lat="45.93479" lon="6.50359">
        <ele>1532</ele>
        <time>2021-09-07T23:01:39+02:00</time>
      </trkpt>
      <trkpt lat="45.93479" lon="6.50383">
        <ele>1535</ele>
        <time>2021-09-07T23:01:44+02:00</time>
      </trkpt>
      <trkpt lat="45.93483" lon="6.50404">
        <ele>1537</ele>
        <time>2021-09-07T23:01:49+02:00</time>
      </trkpt>
      <trkpt lat="45.9347" lon="6.50434">
        <ele>1541</ele>
        <time>2021-09-07T23:01:54+02:00</time>
      </trkpt>
      <trkpt lat="45.93451" lon="6.50471">
        <ele>1544</ele>
        <time>2021-09-07T23:01:59+02:00</time>
      </trkpt>
      <trkpt lat="45.93448" lon="6.50518">
        <ele>1553</ele>
        <time>2021-09-07T23:02:04+02:00</time>
      </trkpt>
      <trkpt lat="45.93444" lon="6.50597">
        <ele>1566</ele>
        <time>2021-09-07T23:02:09+02:00</time>
      </trkpt>
      <trkpt lat="45.93442" lon="6.50633">
        <ele>1571</ele>
        <time>2021-09-07T23:02:14+02:00</time>
      </trkpt>
      <trkpt lat="45.93446" lon="6.50637">
        <ele>1572</ele>
        <time>2021-09-07T23:02:19+02:00</time>
      </trkpt>
      <trkpt lat="45.93456" lon="6.50623">
        <ele>1574</ele>
        <time>2021-09-07T23:02:24+02:00</time>
      </trkpt>
      <trkpt lat="45.93464" lon="6.50621">
        <ele>1576</ele>
        <time>2021-09-07T23:02:29+02:00</time>
      </trkpt>
      <trkpt lat="45.93475" lon="6.50606">
        <ele>1577</ele>
        <time>2021-09-07T23:02:34+02:00</time>
      </trkpt>
      <trkpt lat="45.93481" lon="6.50606">
        <ele>1579</ele>
        <time>2021-09-07T23:02:39+02:00</time>
      </trkpt>
      <trkpt lat="45.93486" lon="6.50624">
        <ele>1584</ele>
        <time>2021-09-07T23:02:44+02:00</time>
      </trkpt>
      <trkpt lat="45.93488" lon="6.50641">
        <ele>1587</ele>
        <time>2021-09-07T23:02:49+02:00</time>
      </trkpt>
      <trkpt lat="45.93488" lon="6.50655">
        <ele>1589</ele>
        <time>2021-09-07T23:02:54+02:00</time>
      </trkpt>
      <trkpt lat="45.93494" lon="6.50655">
        <ele>1591</ele>
        <time>2021-09-07T23:02:59+02:00</time>
      </trkpt>
      <trkpt lat="45.93499" lon="6.50651">
        <ele>1591</ele>
        <time>2021-09-07T23:03:04+02:00</time>
      </trkpt>
      <trkpt lat="45.93504" lon="6.50637">
        <ele>1591</ele>
        <time>2021-09-07T23:03:09+02:00</time>
      </trkpt>
      <trkpt lat="45.93521" lon="6.50614">
        <ele>1594</ele>
        <time>2021-09-07T23:03:14+02:00</time>
      </trkpt>
      <trkpt lat="45.93538" lon="6.50608">
        <ele>1597</ele>
        <time>2021-09-07T23:03:19+02:00</time>
      </trkpt>
      <trkpt lat="45.93552" lon="6.50611">
        <ele>1601</ele>
        <time>2021-09-07T23:03:24+02:00</time>
      </trkpt>
      <trkpt lat="45.93579" lon="6.50615">
        <ele>1608</ele>
        <time>2021-09-07T23:03:29+02:00</time>
      </trkpt>
      <trkpt lat="45.93597" lon="6.50617">
        <ele>1611</ele>
        <time>2021-09-07T23:03:34+02:00</time>
      </trkpt>
      <trkpt lat="45.93614" lon="6.50623">
        <ele>1613</ele>
        <time>2021-09-07T23:03:39+02:00</time>
      </trkpt>
      <trkpt lat="45.93638" lon="6.50649">
        <ele>1615</ele>
        <time>2021-09-07T23:03:44+02:00</time>
      </trkpt>
      <trkpt lat="45.93676" lon="6.5068">
        <ele>1614</ele>
        <time>2021-09-07T23:03:49+02:00</time>
      </trkpt>
      <trkpt lat="45.93728" lon="6.50713">
        <ele>1612</ele>
        <time>2021-09-07T23:03:54+02:00</time>
      </trkpt>
      <trkpt lat="45.93755" lon="6.50728">
        <ele>1608</ele>
        <time>2021-09-07T23:03:59+02:00</time>
      </trkpt>
      <trkpt lat="45.938" lon="6.50777">
        <ele>1604</ele>
        <time>2021-09-07T23:04:04+02:00</time>
      </trkpt>
      <trkpt lat="45.93837" lon="6.50825">
        <ele>1599</ele>
        <time>2021-09-07T23:04:09+02:00</time>
      </trkpt>
      <trkpt lat="45.93859" lon="6.50865">
        <ele>1599</ele>
        <time>2021-09-07T23:04:14+02:00</time>
      </trkpt>
      <trkpt lat="45.9387" lon="6.50894">
        <ele>1601</ele>
        <time>2021-09-07T23:04:19+02:00</time>
      </trkpt>
      <trkpt lat="45.93877" lon="6.5093">
        <ele>1604</ele>
        <time>2021-09-07T23:04:24+02:00</time>
      </trkpt>
      <trkpt lat="45.93883" lon="6.50956">
        <ele>1604</ele>
        <time>2021-09-07T23:04:29+02:00</time>
      </trkpt>
      <trkpt lat="45.93892" lon="6.50968">
        <ele>1600</ele>
        <time>2021-09-07T23:04:34+02:00</time>
      </trkpt>
      <trkpt lat="45.93883" lon="6.50988">
        <ele>1605</ele>
        <time>2021-09-07T23:04:39+02:00</time>
      </trkpt>
      <trkpt lat="45.9388" lon="6.51001">
        <ele>1606</ele>
        <time>2021-09-07T23:04:44+02:00</time>
      </trkpt>
      <trkpt lat="45.93877" lon="6.51032">
        <ele>1606</ele>
        <time>2021-09-07T23:04:49+02:00</time>
      </trkpt>
      <trkpt lat="45.93867" lon="6.5106">
        <ele>1607</ele>
        <time>2021-09-07T23:04:54+02:00</time>
      </trkpt>
      <trkpt lat="45.93859" lon="6.51099">
        <ele>1605</ele>
        <time>2021-09-07T23:04:59+02:00</time>
      </trkpt>
      <trkpt lat="45.93852" lon="6.51125">
        <ele>1603</ele>
        <time>2021-09-07T23:05:04+02:00</time>
      </trkpt>
      <trkpt lat="45.93842" lon="6.51145">
        <ele>1602</ele>
        <time>2021-09-07T23:05:09+02:00</time>
      </trkpt>
      <trkpt lat="45.93832" lon="6.51168">
        <ele>1600</ele>
        <time>2021-09-07T23:05:14+02:00</time>
      </trkpt>
      <trkpt lat="45.93831" lon="6.51196">
        <ele>1594</ele>
        <time>2021-09-07T23:05:19+02:00</time>
      </trkpt>
      <trkpt lat="45.9382" lon="6.5121">
        <ele>1598</ele>
        <time>2021-09-07T23:05:24+02:00</time>
      </trkpt>
      <trkpt lat="45.93816" lon="6.51223">
        <ele>1599</ele>
        <time>2021-09-07T23:05:29+02:00</time>
      </trkpt>
      <trkpt lat="45.93821" lon="6.51236">
        <ele>1598</ele>
        <time>2021-09-07T23:05:34+02:00</time>
      </trkpt>
      <trkpt lat="45.93819" lon="6.51258">
        <ele>1603</ele>
        <time>2021-09-07T23:05:39+02:00</time>
      </trkpt>
      <trkpt lat="45.9381" lon="6.51274">
        <ele>1610</ele>
        <time>2021-09-07T23:05:44+02:00</time>
      </trkpt>
      <trkpt lat="45.93807" lon="6.51279">
        <ele>1613</ele>
        <time>2021-09-07T23:05:49+02:00</time>
      </trkpt>
      <trkpt lat="45.93809" lon="6.51294">
        <ele>1618</ele>
        <time>2021-09-07T23:05:54+02:00</time>
      </trkpt>
      <trkpt lat="45.93804" lon="6.51303">
        <ele>1624</ele>
        <time>2021-09-07T23:05:59+02:00</time>
      </trkpt>
      <trkpt lat="45.9381" lon="6.51313">
        <ele>1625</ele>
        <time>2021-09-07T23:06:04+02:00</time>
      </trkpt>
      <trkpt lat="45.93819" lon="6.51327">
        <ele>1628</ele>
        <time>2021-09-07T23:06:09+02:00</time>
      </trkpt>
      <trkpt lat="45.93808" lon="6.51336">
        <ele>1637</ele>
        <time>2021-09-07T23:06:14+02:00</time>
      </trkpt>
      <trkpt lat="45.93811" lon="6.51355">
        <ele>1644</ele>
        <time>2021-09-07T23:06:19+02:00</time>
      </trkpt>
      <trkpt lat="45.93806" lon="6.51373">
        <ele>1653</ele>
        <time>2021-09-07T23:06:24+02:00</time>
      </trkpt>
      <trkpt lat="45.93818" lon="6.51407">
        <ele>1659</ele>
        <time>2021-09-07T23:06:29+02:00</time>
      </trkpt>
      <trkpt lat="45.93811" lon="6.51453">
        <ele>1669</ele>
        <time>2021-09-07T23:06:34+02:00</time>
      </trkpt>
      <trkpt lat="45.93816" lon="6.51476">
        <ele>1668</ele>
        <time>2021-09-07T23:06:39+02:00</time>
      </trkpt>
      <trkpt lat="45.93824" lon="6.51503">
        <ele>1668</ele>
        <time>2021-09-07T23:06:44+02:00</time>
      </trkpt>
      <trkpt lat="45.93821" lon="6.51526">
        <ele>1671</ele>
        <time>2021-09-07T23:06:49+02:00</time>
      </trkpt>
      <trkpt lat="45.93827" lon="6.51543">
        <ele>1668</ele>
        <time>2021-09-07T23:06:54+02:00</time>
      </trkpt>
      <trkpt lat="45.93824" lon="6.51571">
        <ele>1671</ele>
        <time>2021-09-07T23:06:59+02:00</time>
      </trkpt>
      <trkpt lat="45.93831" lon="6.51582">
        <ele>1670</ele>
        <time>2021-09-07T23:07:04+02:00</time>
      </trkpt>
      <trkpt lat="45.93848" lon="6.51616">
        <ele>1675</ele>
        <time>2021-09-07T23:07:09+02:00</time>
      </trkpt>
      <trkpt lat="45.93858" lon="6.51655">
        <ele>1684</ele>
        <time>2021-09-07T23:07:14+02:00</time>
      </trkpt>
      <trkpt lat="45.9387" lon="6.51677">
        <ele>1687</ele>
        <time>2021-09-07T23:07:19+02:00</time>
      </trkpt>
      <trkpt lat="45.93864" lon="6.5171">
        <ele>1698</ele>
        <time>2021-09-07T23:07:24+02:00</time>
      </trkpt>
      <trkpt lat="45.9386" lon="6.51745">
        <ele>1705</ele>
        <time>2021-09-07T23:07:29+02:00</time>
      </trkpt>
      <trkpt lat="45.93855" lon="6.51771">
        <ele>1712</ele>
        <time>2021-09-07T23:07:34+02:00</time>
      </trkpt>
      <trkpt lat="45.93849" lon="6.51784">
        <ele>1718</ele>
        <time>2021-09-07T23:07:39+02:00</time>
      </trkpt>
      <trkpt lat="45.93881" lon="6.51817">
        <ele>1712</ele>
        <time>2021-09-07T23:07:44+02:00</time>
      </trkpt>
      <trkpt lat="45.93899" lon="6.51856">
        <ele>1712</ele>
        <time>2021-09-07T23:07:49+02:00</time>
      </trkpt>
      <trkpt lat="45.93934" lon="6.51901">
        <ele>1714</ele>
        <time>2021-09-07T23:07:54+02:00</time>
      </trkpt>
      <trkpt lat="45.93959" lon="6.51919">
        <ele>1713</ele>
        <time>2021-09-07T23:07:59+02:00</time>
      </trkpt>
      <trkpt lat="45.93962" lon="6.51954">
        <ele>1722</ele>
        <time>2021-09-07T23:08:04+02:00</time>
      </trkpt>
      <trkpt lat="45.93989" lon="6.51968">
        <ele>1724</ele>
        <time>2021-09-07T23:08:09+02:00</time>
      </trkpt>
      <trkpt lat="45.93992" lon="6.51979">
        <ele>1726</ele>
        <time>2021-09-07T23:08:14+02:00</time>
      </trkpt>
      <trkpt lat="45.94024" lon="6.52033">
        <ele>1730</ele>
        <time>2021-09-07T23:08:19+02:00</time>
      </trkpt>
      <trkpt lat="45.9404" lon="6.52054">
        <ele>1731</ele>
        <time>2021-09-07T23:08:24+02:00</time>
      </trkpt>
      <trkpt lat="45.94043" lon="6.52071">
        <ele>1735</ele>
        <time>2021-09-07T23:08:29+02:00</time>
      </trkpt>
      <trkpt lat="45.94038" lon="6.52098">
        <ele>1742</ele>
        <time>2021-09-07T23:08:34+02:00</time>
      </trkpt>
      <trkpt lat="45.94057" lon="6.52124">
        <ele>1748</ele>
        <time>2021-09-07T23:08:39+02:00</time>
      </trkpt>
      <trkpt lat="45.94062" lon="6.52135">
        <ele>1750</ele>
        <time>2021-09-07T23:08:44+02:00</time>
      </trkpt>
      <trkpt lat="45.94051" lon="6.52165">
        <ele>1759</ele>
        <time>2021-09-07T23:08:49+02:00</time>
      </trkpt>
      <trkpt lat="45.94054" lon="6.52185">
        <ele>1764</ele>
        <time>2021-09-07T23:08:54+02:00</time>
      </trkpt>
      <trkpt lat="45.94047" lon="6.52201">
        <ele>1771</ele>
        <time>2021-09-07T23:08:59+02:00</time>
      </trkpt>
      <trkpt lat="45.94041" lon="6.52215">
        <ele>1779</ele>
        <time>2021-09-07T23:09:04+02:00</time>
      </trkpt>
      <trkpt lat="45.94026" lon="6.52218">
        <ele>1784</ele>
        <time>2021-09-07T23:09:09+02:00</time>
      </trkpt>
      <trkpt lat="45.9403" lon="6.52233">
        <ele>1789</ele>
        <time>2021-09-07T23:09:14+02:00</time>
      </trkpt>
      <trkpt lat="45.94034" lon="6.52243">
        <ele>1792</ele>
        <time>2021-09-07T23:09:19+02:00</time>
      </trkpt>
      <trkpt lat="45.94025" lon="6.52255">
        <ele>1798</ele>
        <time>2021-09-07T23:09:24+02:00</time>
      </trkpt>
      <trkpt lat="45.94061" lon="6.52287">
        <ele>1807</ele>
        <time>2021-09-07T23:09:29+02:00</time>
      </trkpt>
      <trkpt lat="45.94062" lon="6.52297">
        <ele>1810</ele>
        <time>2021-09-07T23:09:34+02:00</time>
      </trkpt>
      <trkpt lat="45.94081" lon="6.52311">
        <ele>1809</ele>
        <time>2021-09-07T23:09:39+02:00</time>
      </trkpt>
      <trkpt lat="45.94088" lon="6.52332">
        <ele>1812</ele>
        <time>2021-09-07T23:09:44+02:00</time>
      </trkpt>
      <trkpt lat="45.94092" lon="6.52346">
        <ele>1814</ele>
        <time>2021-09-07T23:09:49+02:00</time>
      </trkpt>
      <trkpt lat="45.94101" lon="6.52362">
        <ele>1815</ele>
        <time>2021-09-07T23:09:54+02:00</time>
      </trkpt>
      <trkpt lat="45.94104" lon="6.52385">
        <ele>1821</ele>
        <time>2021-09-07T23:09:59+02:00</time>
      </trkpt>
      <trkpt lat="45.94103" lon="6.52403">
        <ele>1827</ele>
        <time>2021-09-07T23:10:04+02:00</time>
      </trkpt>
      <trkpt lat="45.94108" lon="6.52424">
        <ele>1833</ele>
        <time>2021-09-07T23:10:09+02:00</time>
      </trkpt>
      <trkpt lat="45.94114" lon="6.52437">
        <ele>1835</ele>
        <time>2021-09-07T23:10:14+02:00</time>
      </trkpt>
      <trkpt lat="45.94099" lon="6.52458">
        <ele>1845</ele>
        <time>2021-09-07T23:10:19+02:00</time>
      </trkpt>
      <trkpt lat="45.94083" lon="6.52481">
        <ele>1857</ele>
        <time>2021-09-07T23:10:24+02:00</time>
      </trkpt>
      <trkpt lat="45.94065" lon="6.52502">
        <ele>1869</ele>
        <time>2021-09-07T23:10:29+02:00</time>
      </trkpt>
      <trkpt lat="45.94049" lon="6.52506">
        <ele>1875</ele>
        <time>2021-09-07T23:10:34+02:00</time>
      </trkpt>
      <trkpt lat="45.94037" lon="6.52503">
        <ele>1879</ele>
        <time>2021-09-07T23:10:39+02:00</time>
      </trkpt>
      <trkpt lat="45.94023" lon="6.52548">
        <ele>1892</ele>
        <time>2021-09-07T23:10:44+02:00</time>
      </trkpt>
      <trkpt lat="45.94014" lon="6.5258">
        <ele>1901</ele>
        <time>2021-09-07T23:10:49+02:00</time>
      </trkpt>
      <trkpt lat="45.94011" lon="6.52588">
        <ele>1904</ele>
        <time>2021-09-07T23:10:54+02:00</time>
      </trkpt>
      <trkpt lat="45.94023" lon="6.52628">
        <ele>1911</ele>
        <time>2021-09-07T23:10:59+02:00</time>
      </trkpt>
      <trkpt lat="45.9402" lon="6.52639">
        <ele>1915</ele>
        <time>2021-09-07T23:11:04+02:00</time>
      </trkpt>
      <trkpt lat="45.94" lon="6.52639">
        <ele>1923</ele>
        <time>2021-09-07T23:11:09+02:00</time>
      </trkpt>
      <trkpt lat="45.9399" lon="6.52634">
        <ele>1926</ele>
        <time>2021-09-07T23:11:14+02:00</time>
      </trkpt>
      <trkpt lat="45.94015" lon="6.52762">
        <ele>1965</ele>
        <time>2021-09-07T23:11:19+02:00</time>
      </trkpt>
      <trkpt lat="45.94025" lon="6.52796">
        <ele>1974</ele>
        <time>2021-09-07T23:11:24+02:00</time>
      </trkpt>
      <trkpt lat="45.94032" lon="6.52834">
        <ele>1984</ele>
        <time>2021-09-07T23:11:29+02:00</time>
      </trkpt>
      <trkpt lat="45.94037" lon="6.52858">
        <ele>1990</ele>
        <time>2021-09-07T23:11:34+02:00</time>
      </trkpt>
      <trkpt lat="45.94041" lon="6.52867">
        <ele>1992</ele>
        <time>2021-09-07T23:11:39+02:00</time>
      </trkpt>
      <trkpt lat="45.94028" lon="6.52904">
        <ele>2007</ele>
        <time>2021-09-07T23:11:44+02:00</time>
      </trkpt>
      <trkpt lat="45.94013" lon="6.52913">
        <ele>2014</ele>
        <time>2021-09-07T23:11:49+02:00</time>
      </trkpt>
      <trkpt lat="45.93992" lon="6.52933">
        <ele>2023</ele>
        <time>2021-09-07T23:11:54+02:00</time>
      </trkpt>
      <trkpt lat="45.93975" lon="6.52955">
        <ele>2031</ele>
        <time>2021-09-07T23:11:59+02:00</time>
      </trkpt>
      <trkpt lat="45.93958" lon="6.5296">
        <ele>2036</ele>
        <time>2021-09-07T23:12:04+02:00</time>
      </trkpt>
      <trkpt lat="45.93947" lon="6.52969">
        <ele>2041</ele>
        <time>2021-09-07T23:12:09+02:00</time>
      </trkpt>
      <trkpt lat="45.93933" lon="6.52965">
        <ele>2042</ele>
        <time>2021-09-07T23:12:14+02:00</time>
      </trkpt>
      <trkpt lat="45.9392" lon="6.52976">
        <ele>2048</ele>
        <time>2021-09-07T23:12:19+02:00</time>
      </trkpt>
      <trkpt lat="45.93902" lon="6.52986">
        <ele>2052</ele>
        <time>2021-09-07T23:12:24+02:00</time>
      </trkpt>
      <trkpt lat="45.9389" lon="6.53022">
        <ele>2063</ele>
        <time>2021-09-07T23:12:29+02:00</time>
      </trkpt>
      <trkpt lat="45.93883" lon="6.53057">
        <ele>2073</ele>
        <time>2021-09-07T23:12:34+02:00</time>
      </trkpt>
      <trkpt lat="45.93881" lon="6.5307">
        <ele>2077</ele>
        <time>2021-09-07T23:12:39+02:00</time>
      </trkpt>
      <trkpt lat="45.93873" lon="6.53076">
        <ele>2081</ele>
        <time>2021-09-07T23:12:44+02:00</time>
      </trkpt>
      <trkpt lat="45.93847" lon="6.53076">
        <ele>2088</ele>
        <time>2021-09-07T23:12:49+02:00</time>
      </trkpt>
      <trkpt lat="45.93836" lon="6.53074">
        <ele>2092</ele>
        <time>2021-09-07T23:12:54+02:00</time>
      </trkpt>
      <trkpt lat="45.93825" lon="6.53064">
        <ele>2093</ele>
        <time>2021-09-07T23:12:59+02:00</time>
      </trkpt>
      <trkpt lat="45.93819" lon="6.53072">
        <ele>2097</ele>
        <time>2021-09-07T23:13:04+02:00</time>
      </trkpt>
      <trkpt lat="45.93811" lon="6.53086">
        <ele>2105</ele>
        <time>2021-09-07T23:13:09+02:00</time>
      </trkpt>
      <trkpt lat="45.93815" lon="6.5311">
        <ele>2113</ele>
        <time>2021-09-07T23:13:14+02:00</time>
      </trkpt>
      <trkpt lat="45.93819" lon="6.53127">
        <ele>2118</ele>
        <time>2021-09-07T23:13:19+02:00</time>
      </trkpt>
      <trkpt lat="45.93815" lon="6.53139">
        <ele>2125</ele>
        <time>2021-09-07T23:13:24+02:00</time>
      </trkpt>
      <trkpt lat="45.93797" lon="6.53142">
        <ele>2132</ele>
        <time>2021-09-07T23:13:29+02:00</time>
      </trkpt>
      <trkpt lat="45.93787" lon="6.53163">
        <ele>2143</ele>
        <time>2021-09-07T23:13:34+02:00</time>
      </trkpt>
      <trkpt lat="45.93787" lon="6.53181">
        <ele>2150</ele>
        <time>2021-09-07T23:13:39+02:00</time>
      </trkpt>
      <trkpt lat="45.93769" lon="6.53175">
        <ele>2154</ele>
        <time>2021-09-07T23:13:44+02:00</time>
      </trkpt>
      <trkpt lat="45.93761" lon="6.53167">
        <ele>2155</ele>
        <time>2021-09-07T23:13:49+02:00</time>
      </trkpt>
      <trkpt lat="45.93758" lon="6.53187">
        <ele>2159</ele>
        <time>2021-09-07T23:13:54+02:00</time>
      </trkpt>
      <trkpt lat="45.9376" lon="6.53236">
        <ele>2165</ele>
        <time>2021-09-07T23:13:59+02:00</time>
      </trkpt>
      <trkpt lat="45.93764" lon="6.53308">
        <ele>2178</ele>
        <time>2021-09-07T23:14:04+02:00</time>
      </trkpt>
      <trkpt lat="45.93767" lon="6.53352">
        <ele>2185</ele>
        <time>2021-09-07T23:14:09+02:00</time>
      </trkpt>
      <trkpt lat="45.93783" lon="6.53379">
        <ele>2206</ele>
        <time>2021-09-07T23:14:14+02:00</time>
      </trkpt>
      <trkpt lat="45.93785" lon="6.53427">
        <ele>2218</ele>
        <time>2021-09-07T23:14:19+02:00</time>
      </trkpt>
      <trkpt lat="45.93782" lon="6.53502">
        <ele>2223</ele>
        <time>2021-09-07T23:14:24+02:00</time>
      </trkpt>
      <trkpt lat="45.93788" lon="6.53558">
        <ele>2239</ele>
        <time>2021-09-07T23:14:29+02:00</time>
      </trkpt>
      <trkpt lat="45.93805" lon="6.53582">
        <ele>2255</ele>
        <time>2021-09-07T23:14:34+02:00</time>
      </trkpt>
      <trkpt lat="45.93804" lon="6.53615">
        <ele>2265</ele>
        <time>2021-09-07T23:14:39+02:00</time>
      </trkpt>
      <trkpt lat="45.93821" lon="6.53616">
        <ele>2274</ele>
        <time>2021-09-07T23:14:44+02:00</time>
      </trkpt>
      <trkpt lat="45.93834" lon="6.53607">
        <ele>2280</ele>
        <time>2021-09-07T23:14:49+02:00</time>
      </trkpt>
      <trkpt lat="45.93839" lon="6.53645">
        <ele>2290</ele>
        <time>2021-09-07T23:14:54+02:00</time>
      </trkpt>
      <trkpt lat="45.93851" lon="6.53649">
        <ele>2297</ele>
        <time>2021-09-07T23:14:59+02:00</time>
      </trkpt>
      <trkpt lat="45.93862" lon="6.53663">
        <ele>2306</ele>
        <time>2021-09-07T23:15:04+02:00</time>
      </trkpt>
      <trkpt lat="45.93878" lon="6.53675">
        <ele>2317</ele>
        <time>2021-09-07T23:15:09+02:00</time>
      </trkpt>
      <trkpt lat="45.9389" lon="6.53685">
        <ele>2327</ele>
        <time>2021-09-07T23:15:14+02:00</time>
      </trkpt>
      <trkpt lat="45.93903" lon="6.53728">
        <ele>2352</ele>
        <time>2021-09-07T23:15:19+02:00</time>
      </trkpt>
      <trkpt lat="45.93918" lon="6.53739">
        <ele>2360</ele>
        <time>2021-09-07T23:15:24+02:00</time>
      </trkpt>
      <trkpt lat="45.9393" lon="6.53744">
        <ele>2359</ele>
        <time>2021-09-07T23:15:29+02:00</time>
      </trkpt>
      <trkpt lat="45.93954" lon="6.53783">
        <ele>2362</ele>
        <time>2021-09-07T23:15:34+02:00</time>
      </trkpt>
      <trkpt lat="45.93973" lon="6.53772">
        <ele>2351</ele>
        <time>2021-09-07T23:15:39+02:00</time>
      </trkpt>
      <trkpt lat="45.93985" lon="6.53788">
        <ele>2353</ele>
        <time>2021-09-07T23:15:44+02:00</time>
      </trkpt>
      <trkpt lat="45.93995" lon="6.53805">
        <ele>2355</ele>
        <time>2021-09-07T23:15:49+02:00</time>
      </trkpt>
      <trkpt lat="45.94013" lon="6.5382">
        <ele>2357</ele>
        <time>2021-09-07T23:15:54+02:00</time>
      </trkpt>
      <trkpt lat="45.94018" lon="6.5383">
        <ele>2359</ele>
        <time>2021-09-07T23:15:59+02:00</time>
      </trkpt>
      <trkpt lat="45.9402" lon="6.53856">
        <ele>2365</ele>
        <time>2021-09-07T23:16:04+02:00</time>
      </trkpt>
      <trkpt lat="45.94027" lon="6.53886">
        <ele>2368</ele>
        <time>2021-09-07T23:16:09+02:00</time>
      </trkpt>
      <trkpt lat="45.94036" lon="6.53924">
        <ele>2377</ele>
        <time>2021-09-07T23:16:14+02:00</time>
      </trkpt>
      <trkpt lat="45.94049" lon="6.53941">
        <ele>2382</ele>
        <time>2021-09-07T23:16:19+02:00</time>
      </trkpt>
      <trkpt lat="45.94049" lon="6.53947">
        <ele>2384</ele>
        <time>2021-09-07T23:16:24+02:00</time>
      </trkpt>
      <trkpt lat="45.94052" lon="6.5395">
        <ele>2385</ele>
        <time>2021-09-07T23:16:29+02:00</time>
      </trkpt>
      <trkpt lat="45.94054" lon="6.5396">
        <ele>2387</ele>
        <time>2021-09-07T23:16:34+02:00</time>
      </trkpt>
      <trkpt lat="45.94055" lon="6.53962">
        <ele>2388</ele>
        <time>2021-09-07T23:16:39+02:00</time>
      </trkpt>
      <trkpt lat="45.94059" lon="6.5397">
        <ele>2389</ele>
        <time>2021-09-07T23:16:44+02:00</time>
      </trkpt>
      <trkpt lat="45.94067" lon="6.53966">
        <ele>2388</ele>
        <time>2021-09-07T23:16:49+02:00</time>
      </trkpt>
      <trkpt lat="45.94079" lon="6.53962">
        <ele>2389</ele>
        <time>2021-09-07T23:16:54+02:00</time>
      </trkpt>
      <trkpt lat="45.94088" lon="6.53937">
        <ele>2391</ele>
        <time>2021-09-07T23:16:59+02:00</time>
      </trkpt>
    </trkseg>
  </trk>
  <trk>
    <name><![CDATA[Mont Charvet depuis les Confins_2]]></name>
    <desc><![CDATA[chaarvet fin]]></desc>
    <trkseg>
      <trkpt lat="45.94088" lon="6.53937">
        <ele>2391</ele>
        <time>2021-09-07T23:16:59+02:00</time>
      </trkpt>
      <trkpt lat="45.94104" lon="6.53936">
        <ele>2392</ele>
        <time>2021-09-07T23:17:04+02:00</time>
      </trkpt>
      <trkpt lat="45.94118" lon="6.53942">
        <ele>2389</ele>
        <time>2021-09-07T23:17:09+02:00</time>
      </trkpt>
      <trkpt lat="45.94139" lon="6.53947">
        <ele>2379</ele>
        <time>2021-09-07T23:17:14+02:00</time>
      </trkpt>
      <trkpt lat="45.94153" lon="6.53943">
        <ele>2393</ele>
        <time>2021-09-07T23:17:19+02:00</time>
      </trkpt>
      <trkpt lat="45.94202" lon="6.53917">
        <ele>2475</ele>
        <time>2021-09-07T23:17:24+02:00</time>
      </trkpt>
      <trkpt lat="45.94237" lon="6.5392">
        <ele>2496</ele>
        <time>2021-09-07T23:17:29+02:00</time>
      </trkpt>
      <trkpt lat="45.94246" lon="6.53905">
        <ele>2511</ele>
        <time>2021-09-07T23:17:34+02:00</time>
      </trkpt>
      <trkpt lat="45.94255" lon="6.53879">
        <ele>2525</ele>
        <time>2021-09-07T23:17:39+02:00</time>
      </trkpt>
      <trkpt lat="45.94266" lon="6.5391">
        <ele>2501</ele>
        <time>2021-09-07T23:17:44+02:00</time>
      </trkpt>
      <trkpt lat="45.94263" lon="6.53963">
        <ele>2444</ele>
        <time>2021-09-07T23:17:49+02:00</time>
      </trkpt>
      <trkpt lat="45.94274" lon="6.53963">
        <ele>2439</ele>
        <time>2021-09-07T23:17:54+02:00</time>
      </trkpt>
      <trkpt lat="45.94269" lon="6.53983">
        <ele>2421</ele>
        <time>2021-09-07T23:17:59+02:00</time>
      </trkpt>
      <trkpt lat="45.94272" lon="6.54017">
        <ele>2380</ele>
        <time>2021-09-07T23:18:04+02:00</time>
      </trkpt>
      <trkpt lat="45.94284" lon="6.54028">
        <ele>2371</ele>
        <time>2021-09-07T23:18:09+02:00</time>
      </trkpt>
      <trkpt lat="45.94284" lon="6.54045">
        <ele>2353</ele>
        <time>2021-09-07T23:18:14+02:00</time>
      </trkpt>
      <trkpt lat="45.94293" lon="6.54058">
        <ele>2349</ele>
        <time>2021-09-07T23:18:19+02:00</time>
      </trkpt>
      <trkpt lat="45.94301" lon="6.54096">
        <ele>2327</ele>
        <time>2021-09-07T23:18:24+02:00</time>
      </trkpt>
      <trkpt lat="45.94315" lon="6.54096">
        <ele>2325</ele>
        <time>2021-09-07T23:18:29+02:00</time>
      </trkpt>
      <trkpt lat="45.94321" lon="6.54127">
        <ele>2303</ele>
        <time>2021-09-07T23:18:34+02:00</time>
      </trkpt>
      <trkpt lat="45.9432" lon="6.54146">
        <ele>2288</ele>
        <time>2021-09-07T23:18:39+02:00</time>
      </trkpt>
      <trkpt lat="45.94329" lon="6.54167">
        <ele>2267</ele>
        <time>2021-09-07T23:18:44+02:00</time>
      </trkpt>
      <trkpt lat="45.94345" lon="6.54172">
        <ele>2265</ele>
        <time>2021-09-07T23:18:49+02:00</time>
      </trkpt>
      <trkpt lat="45.94356" lon="6.5421">
        <ele>2246</ele>
        <time>2021-09-07T23:18:54+02:00</time>
      </trkpt>
      <trkpt lat="45.94377" lon="6.54197">
        <ele>2258</ele>
        <time>2021-09-07T23:18:59+02:00</time>
      </trkpt>
      <trkpt lat="45.94396" lon="6.5421">
        <ele>2262</ele>
        <time>2021-09-07T23:19:04+02:00</time>
      </trkpt>
      <trkpt lat="45.94405" lon="6.54219">
        <ele>2265</ele>
        <time>2021-09-07T23:19:09+02:00</time>
      </trkpt>
      <trkpt lat="45.94417" lon="6.54214">
        <ele>2277</ele>
        <time>2021-09-07T23:19:14+02:00</time>
      </trkpt>
      <trkpt lat="45.94427" lon="6.54223">
        <ele>2281</ele>
        <time>2021-09-07T23:19:19+02:00</time>
      </trkpt>
      <trkpt lat="45.94442" lon="6.54219">
        <ele>2300</ele>
        <time>2021-09-07T23:19:24+02:00</time>
      </trkpt>
      <trkpt lat="45.9446" lon="6.54223">
        <ele>2324</ele>
        <time>2021-09-07T23:19:29+02:00</time>
      </trkpt>
      <trkpt lat="45.94475" lon="6.54217">
        <ele>2345</ele>
        <time>2021-09-07T23:19:34+02:00</time>
      </trkpt>
      <trkpt lat="45.94493" lon="6.54225">
        <ele>2339</ele>
        <time>2021-09-07T23:19:39+02:00</time>
      </trkpt>
      <trkpt lat="45.94514" lon="6.54227">
        <ele>2327</ele>
        <time>2021-09-07T23:19:44+02:00</time>
      </trkpt>
      <trkpt lat="45.94538" lon="6.54223">
        <ele>2307</ele>
        <time>2021-09-07T23:19:49+02:00</time>
      </trkpt>
      <trkpt lat="45.94554" lon="6.54219">
        <ele>2296</ele>
        <time>2021-09-07T23:19:54+02:00</time>
      </trkpt>
      <trkpt lat="45.94571" lon="6.54214">
        <ele>2283</ele>
        <time>2021-09-07T23:19:59+02:00</time>
      </trkpt>
      <trkpt lat="45.94586" lon="6.54212">
        <ele>2273</ele>
        <time>2021-09-07T23:20:04+02:00</time>
      </trkpt>
      <trkpt lat="45.94605" lon="6.54191">
        <ele>2250</ele>
        <time>2021-09-07T23:20:09+02:00</time>
      </trkpt>
      <trkpt lat="45.94614" lon="6.54191">
        <ele>2245</ele>
        <time>2021-09-07T23:20:14+02:00</time>
      </trkpt>
      <trkpt lat="45.9462" lon="6.54169">
        <ele>2234</ele>
        <time>2021-09-07T23:20:19+02:00</time>
      </trkpt>
      <trkpt lat="45.94636" lon="6.54161">
        <ele>2222</ele>
        <time>2021-09-07T23:20:24+02:00</time>
      </trkpt>
      <trkpt lat="45.94652" lon="6.5411">
        <ele>2194</ele>
        <time>2021-09-07T23:20:29+02:00</time>
      </trkpt>
      <trkpt lat="45.94666" lon="6.54096">
        <ele>2181</ele>
        <time>2021-09-07T23:20:34+02:00</time>
      </trkpt>
      <trkpt lat="45.94681" lon="6.54068">
        <ele>2166</ele>
        <time>2021-09-07T23:20:39+02:00</time>
      </trkpt>
      <trkpt lat="45.94694" lon="6.5405">
        <ele>2158</ele>
        <time>2021-09-07T23:20:44+02:00</time>
      </trkpt>
      <trkpt lat="45.94709" lon="6.5404">
        <ele>2155</ele>
        <time>2021-09-07T23:20:49+02:00</time>
      </trkpt>
      <trkpt lat="45.94715" lon="6.54015">
        <ele>2152</ele>
        <time>2021-09-07T23:20:54+02:00</time>
      </trkpt>
      <trkpt lat="45.94726" lon="6.54005">
        <ele>2150</ele>
        <time>2021-09-07T23:20:59+02:00</time>
      </trkpt>
      <trkpt lat="45.94738" lon="6.53977">
        <ele>2147</ele>
        <time>2021-09-07T23:21:04+02:00</time>
      </trkpt>
      <trkpt lat="45.94752" lon="6.53944">
        <ele>2141</ele>
        <time>2021-09-07T23:21:09+02:00</time>
      </trkpt>
      <trkpt lat="45.94767" lon="6.53917">
        <ele>2138</ele>
        <time>2021-09-07T23:21:14+02:00</time>
      </trkpt>
      <trkpt lat="45.9478" lon="6.53889">
        <ele>2133</ele>
        <time>2021-09-07T23:21:19+02:00</time>
      </trkpt>
      <trkpt lat="45.94791" lon="6.5387">
        <ele>2130</ele>
        <time>2021-09-07T23:21:24+02:00</time>
      </trkpt>
      <trkpt lat="45.94814" lon="6.53797">
        <ele>2115</ele>
        <time>2021-09-07T23:21:29+02:00</time>
      </trkpt>
      <trkpt lat="45.94826" lon="6.53765">
        <ele>2110</ele>
        <time>2021-09-07T23:21:34+02:00</time>
      </trkpt>
      <trkpt lat="45.94833" lon="6.53733">
        <ele>2101</ele>
        <time>2021-09-07T23:21:39+02:00</time>
      </trkpt>
      <trkpt lat="45.94834" lon="6.53722">
        <ele>2098</ele>
        <time>2021-09-07T23:21:44+02:00</time>
      </trkpt>
      <trkpt lat="45.94836" lon="6.53703">
        <ele>2091</ele>
        <time>2021-09-07T23:21:49+02:00</time>
      </trkpt>
      <trkpt lat="45.94846" lon="6.53681">
        <ele>2082</ele>
        <time>2021-09-07T23:21:54+02:00</time>
      </trkpt>
      <trkpt lat="45.94871" lon="6.53667">
        <ele>2075</ele>
        <time>2021-09-07T23:21:59+02:00</time>
      </trkpt>
      <trkpt lat="45.94889" lon="6.53646">
        <ele>2069</ele>
        <time>2021-09-07T23:22:04+02:00</time>
      </trkpt>
      <trkpt lat="45.94896" lon="6.5363">
        <ele>2068</ele>
        <time>2021-09-07T23:22:09+02:00</time>
      </trkpt>
      <trkpt lat="45.94896" lon="6.53619">
        <ele>2066</ele>
        <time>2021-09-07T23:22:14+02:00</time>
      </trkpt>
      <trkpt lat="45.94885" lon="6.53608">
        <ele>2061</ele>
        <time>2021-09-07T23:22:19+02:00</time>
      </trkpt>
      <trkpt lat="45.94876" lon="6.53601">
        <ele>2057</ele>
        <time>2021-09-07T23:22:24+02:00</time>
      </trkpt>
      <trkpt lat="45.94869" lon="6.53588">
        <ele>2053</ele>
        <time>2021-09-07T23:22:29+02:00</time>
      </trkpt>
      <trkpt lat="45.94859" lon="6.53566">
        <ele>2045</ele>
        <time>2021-09-07T23:22:34+02:00</time>
      </trkpt>
      <trkpt lat="45.94839" lon="6.53548">
        <ele>2034</ele>
        <time>2021-09-07T23:22:39+02:00</time>
      </trkpt>
      <trkpt lat="45.94823" lon="6.5352">
        <ele>2022</ele>
        <time>2021-09-07T23:22:44+02:00</time>
      </trkpt>
      <trkpt lat="45.94814" lon="6.53502">
        <ele>2017</ele>
        <time>2021-09-07T23:22:49+02:00</time>
      </trkpt>
      <trkpt lat="45.94811" lon="6.53492">
        <ele>2014</ele>
        <time>2021-09-07T23:22:54+02:00</time>
      </trkpt>
      <trkpt lat="45.94793" lon="6.53455">
        <ele>2005</ele>
        <time>2021-09-07T23:22:59+02:00</time>
      </trkpt>
      <trkpt lat="45.94803" lon="6.53436">
        <ele>2000</ele>
        <time>2021-09-07T23:23:04+02:00</time>
      </trkpt>
      <trkpt lat="45.94811" lon="6.53414">
        <ele>1995</ele>
        <time>2021-09-07T23:23:09+02:00</time>
      </trkpt>
      <trkpt lat="45.94813" lon="6.53398">
        <ele>1990</ele>
        <time>2021-09-07T23:23:14+02:00</time>
      </trkpt>
      <trkpt lat="45.94785" lon="6.53351">
        <ele>1979</ele>
        <time>2021-09-07T23:23:19+02:00</time>
      </trkpt>
      <trkpt lat="45.9478" lon="6.53321">
        <ele>1966</ele>
        <time>2021-09-07T23:23:24+02:00</time>
      </trkpt>
      <trkpt lat="45.94773" lon="6.53299">
        <ele>1959</ele>
        <time>2021-09-07T23:23:29+02:00</time>
      </trkpt>
      <trkpt lat="45.94776" lon="6.53285">
        <ele>1951</ele>
        <time>2021-09-07T23:23:34+02:00</time>
      </trkpt>
      <trkpt lat="45.94764" lon="6.53246">
        <ele>1935</ele>
        <time>2021-09-07T23:23:39+02:00</time>
      </trkpt>
      <trkpt lat="45.9476" lon="6.53237">
        <ele>1933</ele>
        <time>2021-09-07T23:23:44+02:00</time>
      </trkpt>
      <trkpt lat="45.94777" lon="6.53225">
        <ele>1925</ele>
        <time>2021-09-07T23:23:49+02:00</time>
      </trkpt>
      <trkpt lat="45.94779" lon="6.53206">
        <ele>1920</ele>
        <time>2021-09-07T23:23:54+02:00</time>
      </trkpt>
      <trkpt lat="45.94796" lon="6.532">
        <ele>1917</ele>
        <time>2021-09-07T23:23:59+02:00</time>
      </trkpt>
      <trkpt lat="45.94798" lon="6.53183">
        <ele>1912</ele>
        <time>2021-09-07T23:24:04+02:00</time>
      </trkpt>
      <trkpt lat="45.94785" lon="6.53161">
        <ele>1906</ele>
        <time>2021-09-07T23:24:09+02:00</time>
      </trkpt>
      <trkpt lat="45.9478" lon="6.53141">
        <ele>1898</ele>
        <time>2021-09-07T23:24:14+02:00</time>
      </trkpt>
      <trkpt lat="45.94767" lon="6.53127">
        <ele>1895</ele>
        <time>2021-09-07T23:24:19+02:00</time>
      </trkpt>
      <trkpt lat="45.94752" lon="6.53102">
        <ele>1888</ele>
        <time>2021-09-07T23:24:24+02:00</time>
      </trkpt>
      <trkpt lat="45.94747" lon="6.53089">
        <ele>1883</ele>
        <time>2021-09-07T23:24:29+02:00</time>
      </trkpt>
      <trkpt lat="45.94747" lon="6.53073">
        <ele>1877</ele>
        <time>2021-09-07T23:24:34+02:00</time>
      </trkpt>
      <trkpt lat="45.94761" lon="6.53058">
        <ele>1869</ele>
        <time>2021-09-07T23:24:39+02:00</time>
      </trkpt>
      <trkpt lat="45.94751" lon="6.53051">
        <ele>1868</ele>
        <time>2021-09-07T23:24:44+02:00</time>
      </trkpt>
      <trkpt lat="45.94738" lon="6.5305">
        <ele>1870</ele>
        <time>2021-09-07T23:24:49+02:00</time>
      </trkpt>
      <trkpt lat="45.94736" lon="6.53032">
        <ele>1864</ele>
        <time>2021-09-07T23:24:54+02:00</time>
      </trkpt>
      <trkpt lat="45.94738" lon="6.53004">
        <ele>1856</ele>
        <time>2021-09-07T23:24:59+02:00</time>
      </trkpt>
      <trkpt lat="45.94741" lon="6.52967">
        <ele>1845</ele>
        <time>2021-09-07T23:25:04+02:00</time>
      </trkpt>
      <trkpt lat="45.94732" lon="6.52929">
        <ele>1832</ele>
        <time>2021-09-07T23:25:09+02:00</time>
      </trkpt>
      <trkpt lat="45.94714" lon="6.52917">
        <ele>1829</ele>
        <time>2021-09-07T23:25:14+02:00</time>
      </trkpt>
      <trkpt lat="45.94708" lon="6.52905">
        <ele>1826</ele>
        <time>2021-09-07T23:25:19+02:00</time>
      </trkpt>
      <trkpt lat="45.94711" lon="6.52861">
        <ele>1815</ele>
        <time>2021-09-07T23:25:24+02:00</time>
      </trkpt>
      <trkpt lat="45.94709" lon="6.5284">
        <ele>1812</ele>
        <time>2021-09-07T23:25:29+02:00</time>
      </trkpt>
      <trkpt lat="45.94723" lon="6.5283">
        <ele>1807</ele>
        <time>2021-09-07T23:25:34+02:00</time>
      </trkpt>
      <trkpt lat="45.94719" lon="6.52802">
        <ele>1802</ele>
        <time>2021-09-07T23:25:39+02:00</time>
      </trkpt>
      <trkpt lat="45.94717" lon="6.52777">
        <ele>1797</ele>
        <time>2021-09-07T23:25:44+02:00</time>
      </trkpt>
      <trkpt lat="45.94698" lon="6.52734">
        <ele>1790</ele>
        <time>2021-09-07T23:25:49+02:00</time>
      </trkpt>
      <trkpt lat="45.94686" lon="6.52708">
        <ele>1786</ele>
        <time>2021-09-07T23:25:54+02:00</time>
      </trkpt>
      <trkpt lat="45.94682" lon="6.52659">
        <ele>1775</ele>
        <time>2021-09-07T23:25:59+02:00</time>
      </trkpt>
      <trkpt lat="45.94675" lon="6.52642">
        <ele>1773</ele>
        <time>2021-09-07T23:26:04+02:00</time>
      </trkpt>
      <trkpt lat="45.94689" lon="6.52623">
        <ele>1765</ele>
        <time>2021-09-07T23:26:09+02:00</time>
      </trkpt>
      <trkpt lat="45.94689" lon="6.52609">
        <ele>1760</ele>
        <time>2021-09-07T23:26:14+02:00</time>
      </trkpt>
      <trkpt lat="45.94683" lon="6.52594">
        <ele>1756</ele>
        <time>2021-09-07T23:26:19+02:00</time>
      </trkpt>
      <trkpt lat="45.94679" lon="6.52569">
        <ele>1747</ele>
        <time>2021-09-07T23:26:24+02:00</time>
      </trkpt>
      <trkpt lat="45.94684" lon="6.52509">
        <ele>1727</ele>
        <time>2021-09-07T23:26:29+02:00</time>
      </trkpt>
      <trkpt lat="45.94707" lon="6.52485">
        <ele>1715</ele>
        <time>2021-09-07T23:26:34+02:00</time>
      </trkpt>
      <trkpt lat="45.94713" lon="6.52464">
        <ele>1706</ele>
        <time>2021-09-07T23:26:39+02:00</time>
      </trkpt>
      <trkpt lat="45.94732" lon="6.52406">
        <ele>1682</ele>
        <time>2021-09-07T23:26:44+02:00</time>
      </trkpt>
      <trkpt lat="45.94757" lon="6.524">
        <ele>1674</ele>
        <time>2021-09-07T23:26:49+02:00</time>
      </trkpt>
      <trkpt lat="45.94769" lon="6.52365">
        <ele>1666</ele>
        <time>2021-09-07T23:26:54+02:00</time>
      </trkpt>
      <trkpt lat="45.94761" lon="6.52334">
        <ele>1661</ele>
        <time>2021-09-07T23:26:59+02:00</time>
      </trkpt>
      <trkpt lat="45.94751" lon="6.52313">
        <ele>1657</ele>
        <time>2021-09-07T23:27:04+02:00</time>
      </trkpt>
      <trkpt lat="45.94759" lon="6.52274">
        <ele>1649</ele>
        <time>2021-09-07T23:27:09+02:00</time>
      </trkpt>
      <trkpt lat="45.9477" lon="6.52254">
        <ele>1643</ele>
        <time>2021-09-07T23:27:14+02:00</time>
      </trkpt>
      <trkpt lat="45.94786" lon="6.5224">
        <ele>1636</ele>
        <time>2021-09-07T23:27:19+02:00</time>
      </trkpt>
      <trkpt lat="45.94771" lon="6.5222">
        <ele>1632</ele>
        <time>2021-09-07T23:27:24+02:00</time>
      </trkpt>
      <trkpt lat="45.94766" lon="6.52201">
        <ele>1626</ele>
        <time>2021-09-07T23:27:29+02:00</time>
      </trkpt>
      <trkpt lat="45.94757" lon="6.52191">
        <ele>1623</ele>
        <time>2021-09-07T23:27:34+02:00</time>
      </trkpt>
      <trkpt lat="45.94749" lon="6.52167">
        <ele>1618</ele>
        <time>2021-09-07T23:27:39+02:00</time>
      </trkpt>
      <trkpt lat="45.94748" lon="6.52158">
        <ele>1615</ele>
        <time>2021-09-07T23:27:44+02:00</time>
      </trkpt>
    </trkseg>
  </trk>
  <trk>
    <name><![CDATA[Mont Charvet depuis les Confins_3]]></name>
    <trkseg>
      <trkpt lat="45.94748" lon="6.52158">
        <ele>1615</ele>
        <time>2021-09-07T23:27:44+02:00</time>
      </trkpt>
      <trkpt lat="45.94728" lon="6.52131">
        <ele>1616</ele>
        <time>2021-09-07T23:27:49+02:00</time>
      </trkpt>
      <trkpt lat="45.94716" lon="6.52113">
        <ele>1617</ele>
        <time>2021-09-07T23:27:54+02:00</time>
      </trkpt>
      <trkpt lat="45.94684" lon="6.52106">
        <ele>1620</ele>
        <time>2021-09-07T23:27:59+02:00</time>
      </trkpt>
      <trkpt lat="45.94666" lon="6.5209">
        <ele>1613</ele>
        <time>2021-09-07T23:28:04+02:00</time>
      </trkpt>
      <trkpt lat="45.9463" lon="6.52055">
        <ele>1605</ele>
        <time>2021-09-07T23:28:09+02:00</time>
      </trkpt>
      <trkpt lat="45.94618" lon="6.52042">
        <ele>1603</ele>
        <time>2021-09-07T23:28:14+02:00</time>
      </trkpt>
      <trkpt lat="45.94601" lon="6.52042">
        <ele>1600</ele>
        <time>2021-09-07T23:28:19+02:00</time>
      </trkpt>
      <trkpt lat="45.94595" lon="6.52027">
        <ele>1595</ele>
        <time>2021-09-07T23:28:24+02:00</time>
      </trkpt>
      <trkpt lat="45.94592" lon="6.52">
        <ele>1588</ele>
        <time>2021-09-07T23:28:29+02:00</time>
      </trkpt>
      <trkpt lat="45.94579" lon="6.51964">
        <ele>1577</ele>
        <time>2021-09-07T23:28:34+02:00</time>
      </trkpt>
      <trkpt lat="45.94556" lon="6.51937">
        <ele>1570</ele>
        <time>2021-09-07T23:28:39+02:00</time>
      </trkpt>
      <trkpt lat="45.94529" lon="6.51891">
        <ele>1558</ele>
        <time>2021-09-07T23:28:44+02:00</time>
      </trkpt>
      <trkpt lat="45.94505" lon="6.51853">
        <ele>1553</ele>
        <time>2021-09-07T23:28:49+02:00</time>
      </trkpt>
      <trkpt lat="45.94482" lon="6.51821">
        <ele>1551</ele>
        <time>2021-09-07T23:28:54+02:00</time>
      </trkpt>
      <trkpt lat="45.94454" lon="6.51793">
        <ele>1547</ele>
        <time>2021-09-07T23:28:59+02:00</time>
      </trkpt>
      <trkpt lat="45.94435" lon="6.51772">
        <ele>1541</ele>
        <time>2021-09-07T23:29:04+02:00</time>
      </trkpt>
      <trkpt lat="45.94416" lon="6.51773">
        <ele>1539</ele>
        <time>2021-09-07T23:29:09+02:00</time>
      </trkpt>
      <trkpt lat="45.94401" lon="6.51761">
        <ele>1536</ele>
        <time>2021-09-07T23:29:14+02:00</time>
      </trkpt>
      <trkpt lat="45.94357" lon="6.5172">
        <ele>1529</ele>
        <time>2021-09-07T23:29:19+02:00</time>
      </trkpt>
      <trkpt lat="45.94323" lon="6.51666">
        <ele>1515</ele>
        <time>2021-09-07T23:29:24+02:00</time>
      </trkpt>
      <trkpt lat="45.94287" lon="6.51644">
        <ele>1507</ele>
        <time>2021-09-07T23:29:29+02:00</time>
      </trkpt>
      <trkpt lat="45.94266" lon="6.51639">
        <ele>1506</ele>
        <time>2021-09-07T23:29:34+02:00</time>
      </trkpt>
      <trkpt lat="45.94249" lon="6.51613">
        <ele>1500</ele>
        <time>2021-09-07T23:29:39+02:00</time>
      </trkpt>
      <trkpt lat="45.94232" lon="6.51593">
        <ele>1498</ele>
        <time>2021-09-07T23:29:44+02:00</time>
      </trkpt>
      <trkpt lat="45.94198" lon="6.51567">
        <ele>1499</ele>
        <time>2021-09-07T23:29:49+02:00</time>
      </trkpt>
      <trkpt lat="45.94178" lon="6.51538">
        <ele>1500</ele>
        <time>2021-09-07T23:29:54+02:00</time>
      </trkpt>
      <trkpt lat="45.94155" lon="6.5152">
        <ele>1504</ele>
        <time>2021-09-07T23:29:59+02:00</time>
      </trkpt>
      <trkpt lat="45.94108" lon="6.51496">
        <ele>1510</ele>
        <time>2021-09-07T23:30:04+02:00</time>
      </trkpt>
      <trkpt lat="45.94087" lon="6.51476">
        <ele>1516</ele>
        <time>2021-09-07T23:30:09+02:00</time>
      </trkpt>
      <trkpt lat="45.94086" lon="6.51446">
        <ele>1517</ele>
        <time>2021-09-07T23:30:14+02:00</time>
      </trkpt>
      <trkpt lat="45.94085" lon="6.51424">
        <ele>1520</ele>
        <time>2021-09-07T23:30:19+02:00</time>
      </trkpt>
      <trkpt lat="45.94097" lon="6.51392">
        <ele>1526</ele>
        <time>2021-09-07T23:30:24+02:00</time>
      </trkpt>
      <trkpt lat="45.9412" lon="6.51369">
        <ele>1530</ele>
        <time>2021-09-07T23:30:29+02:00</time>
      </trkpt>
      <trkpt lat="45.94127" lon="6.51352">
        <ele>1534</ele>
        <time>2021-09-07T23:30:34+02:00</time>
      </trkpt>
      <trkpt lat="45.9413" lon="6.5134">
        <ele>1536</ele>
        <time>2021-09-07T23:30:39+02:00</time>
      </trkpt>
      <trkpt lat="45.94115" lon="6.51333">
        <ele>1541</ele>
        <time>2021-09-07T23:30:44+02:00</time>
      </trkpt>
      <trkpt lat="45.94098" lon="6.51324">
        <ele>1547</ele>
        <time>2021-09-07T23:30:49+02:00</time>
      </trkpt>
      <trkpt lat="45.94084" lon="6.51318">
        <ele>1551</ele>
        <time>2021-09-07T23:30:54+02:00</time>
      </trkpt>
      <trkpt lat="45.94078" lon="6.51301">
        <ele>1555</ele>
        <time>2021-09-07T23:30:59+02:00</time>
      </trkpt>
      <trkpt lat="45.94076" lon="6.51284">
        <ele>1557</ele>
        <time>2021-09-07T23:31:04+02:00</time>
      </trkpt>
      <trkpt lat="45.94068" lon="6.51271">
        <ele>1559</ele>
        <time>2021-09-07T23:31:09+02:00</time>
      </trkpt>
      <trkpt lat="45.9404" lon="6.51267">
        <ele>1563</ele>
        <time>2021-09-07T23:31:14+02:00</time>
      </trkpt>
      <trkpt lat="45.94018" lon="6.51243">
        <ele>1568</ele>
        <time>2021-09-07T23:31:19+02:00</time>
      </trkpt>
      <trkpt lat="45.94003" lon="6.51225">
        <ele>1570</ele>
        <time>2021-09-07T23:31:24+02:00</time>
      </trkpt>
      <trkpt lat="45.93991" lon="6.51214">
        <ele>1571</ele>
        <time>2021-09-07T23:31:29+02:00</time>
      </trkpt>
      <trkpt lat="45.93978" lon="6.51201">
        <ele>1572</ele>
        <time>2021-09-07T23:31:34+02:00</time>
      </trkpt>
      <trkpt lat="45.93955" lon="6.51152">
        <ele>1579</ele>
        <time>2021-09-07T23:31:39+02:00</time>
      </trkpt>
      <trkpt lat="45.93946" lon="6.51112">
        <ele>1585</ele>
        <time>2021-09-07T23:31:44+02:00</time>
      </trkpt>
      <trkpt lat="45.93938" lon="6.51071">
        <ele>1592</ele>
        <time>2021-09-07T23:31:49+02:00</time>
      </trkpt>
      <trkpt lat="45.9394" lon="6.51051">
        <ele>1593</ele>
        <time>2021-09-07T23:31:54+02:00</time>
      </trkpt>
      <trkpt lat="45.93941" lon="6.51034">
        <ele>1594</ele>
        <time>2021-09-07T23:31:59+02:00</time>
      </trkpt>
      <trkpt lat="45.93926" lon="6.51006">
        <ele>1594</ele>
        <time>2021-09-07T23:32:04+02:00</time>
      </trkpt>
      <trkpt lat="45.93911" lon="6.50971">
        <ele>1593</ele>
        <time>2021-09-07T23:32:09+02:00</time>
      </trkpt>
      <trkpt lat="45.93896" lon="6.50965">
        <ele>1599</ele>
        <time>2021-09-07T23:32:14+02:00</time>
      </trkpt>
      <trkpt lat="45.93891" lon="6.50964">
        <ele>1601</ele>
        <time>2021-09-07T23:32:19+02:00</time>
      </trkpt>
      <trkpt lat="45.9388" lon="6.50939">
        <ele>1604</ele>
        <time>2021-09-07T23:32:24+02:00</time>
      </trkpt>
      <trkpt lat="45.9387" lon="6.50887">
        <ele>1599</ele>
        <time>2021-09-07T23:32:29+02:00</time>
      </trkpt>
      <trkpt lat="45.93842" lon="6.50831">
        <ele>1599</ele>
        <time>2021-09-07T23:32:34+02:00</time>
      </trkpt>
      <trkpt lat="45.9379" lon="6.50763">
        <ele>1604</ele>
        <time>2021-09-07T23:32:39+02:00</time>
      </trkpt>
      <trkpt lat="45.93715" lon="6.507">
        <ele>1611</ele>
        <time>2021-09-07T23:32:44+02:00</time>
      </trkpt>
      <trkpt lat="45.93669" lon="6.50673">
        <ele>1614</ele>
        <time>2021-09-07T23:32:49+02:00</time>
      </trkpt>
      <trkpt lat="45.93646" lon="6.50653">
        <ele>1614</ele>
        <time>2021-09-07T23:32:54+02:00</time>
      </trkpt>
      <trkpt lat="45.93622" lon="6.50631">
        <ele>1614</ele>
        <time>2021-09-07T23:32:59+02:00</time>
      </trkpt>
      <trkpt lat="45.93598" lon="6.5062">
        <ele>1612</ele>
        <time>2021-09-07T23:33:04+02:00</time>
      </trkpt>
      <trkpt lat="45.93546" lon="6.5061">
        <ele>1600</ele>
        <time>2021-09-07T23:33:09+02:00</time>
      </trkpt>
      <trkpt lat="45.93527" lon="6.50611">
        <ele>1596</ele>
        <time>2021-09-07T23:33:14+02:00</time>
      </trkpt>
      <trkpt lat="45.93507" lon="6.50634">
        <ele>1592</ele>
        <time>2021-09-07T23:33:19+02:00</time>
      </trkpt>
      <trkpt lat="45.93495" lon="6.50655">
        <ele>1591</ele>
        <time>2021-09-07T23:33:24+02:00</time>
      </trkpt>
      <trkpt lat="45.93487" lon="6.50645">
        <ele>1588</ele>
        <time>2021-09-07T23:33:29+02:00</time>
      </trkpt>
      <trkpt lat="45.9348" lon="6.50607">
        <ele>1579</ele>
        <time>2021-09-07T23:33:34+02:00</time>
      </trkpt>
      <trkpt lat="45.93465" lon="6.50624">
        <ele>1577</ele>
        <time>2021-09-07T23:33:39+02:00</time>
      </trkpt>
      <trkpt lat="45.93451" lon="6.50631">
        <ele>1573</ele>
        <time>2021-09-07T23:33:44+02:00</time>
      </trkpt>
      <trkpt lat="45.93444" lon="6.50634">
        <ele>1571</ele>
        <time>2021-09-07T23:33:49+02:00</time>
      </trkpt>
      <trkpt lat="45.93445" lon="6.50513">
        <ele>1551</ele>
        <time>2021-09-07T23:33:54+02:00</time>
      </trkpt>
      <trkpt lat="45.9345" lon="6.50462">
        <ele>1542</ele>
        <time>2021-09-07T23:33:59+02:00</time>
      </trkpt>
      <trkpt lat="45.93479" lon="6.50401">
        <ele>1537</ele>
        <time>2021-09-07T23:34:04+02:00</time>
      </trkpt>
      <trkpt lat="45.93476" lon="6.50371">
        <ele>1534</ele>
        <time>2021-09-07T23:34:09+02:00</time>
      </trkpt>
      <trkpt lat="45.93475" lon="6.50336">
        <ele>1530</ele>
        <time>2021-09-07T23:34:14+02:00</time>
      </trkpt>
      <trkpt lat="45.93461" lon="6.50297">
        <ele>1524</ele>
        <time>2021-09-07T23:34:19+02:00</time>
      </trkpt>
      <trkpt lat="45.93451" lon="6.50266">
        <ele>1518</ele>
        <time>2021-09-07T23:34:24+02:00</time>
      </trkpt>
      <trkpt lat="45.93417" lon="6.50248">
        <ele>1513</ele>
        <time>2021-09-07T23:34:29+02:00</time>
      </trkpt>
      <trkpt lat="45.93408" lon="6.50229">
        <ele>1511</ele>
        <time>2021-09-07T23:34:34+02:00</time>
      </trkpt>
      <trkpt lat="45.9339" lon="6.50194">
        <ele>1509</ele>
        <time>2021-09-07T23:34:39+02:00</time>
      </trkpt>
      <trkpt lat="45.93374" lon="6.50184">
        <ele>1506</ele>
        <time>2021-09-07T23:34:44+02:00</time>
      </trkpt>
      <trkpt lat="45.93366" lon="6.50172">
        <ele>1504</ele>
        <time>2021-09-07T23:34:49+02:00</time>
      </trkpt>
      <trkpt lat="45.93357" lon="6.50167">
        <ele>1503</ele>
        <time>2021-09-07T23:34:54+02:00</time>
      </trkpt>
      <trkpt lat="45.93342" lon="6.50138">
        <ele>1499</ele>
        <time>2021-09-07T23:34:59+02:00</time>
      </trkpt>
      <trkpt lat="45.93328" lon="6.50125">
        <ele>1496</ele>
        <time>2021-09-07T23:35:04+02:00</time>
      </trkpt>
      <trkpt lat="45.93317" lon="6.50108">
        <ele>1493</ele>
        <time>2021-09-07T23:35:09+02:00</time>
      </trkpt>
      <trkpt lat="45.93294" lon="6.50087">
        <ele>1491</ele>
        <time>2021-09-07T23:35:14+02:00</time>
      </trkpt>
      <trkpt lat="45.9324" lon="6.50024">
        <ele>1495</ele>
        <time>2021-09-07T23:35:19+02:00</time>
      </trkpt>
      <trkpt lat="45.93206" lon="6.49991">
        <ele>1491</ele>
        <time>2021-09-07T23:35:24+02:00</time>
      </trkpt>
      <trkpt lat="45.93176" lon="6.49945">
        <ele>1486</ele>
        <time>2021-09-07T23:35:29+02:00</time>
      </trkpt>
      <trkpt lat="45.93152" lon="6.49936">
        <ele>1482</ele>
        <time>2021-09-07T23:35:34+02:00</time>
      </trkpt>
      <trkpt lat="45.93131" lon="6.49912">
        <ele>1478</ele>
        <time>2021-09-07T23:35:39+02:00</time>
      </trkpt>
      <trkpt lat="45.93122" lon="6.49874">
        <ele>1476</ele>
        <time>2021-09-07T23:35:44+02:00</time>
      </trkpt>
      <trkpt lat="45.93116" lon="6.49826">
        <ele>1476</ele>
        <time>2021-09-07T23:35:49+02:00</time>
      </trkpt>
      <trkpt lat="45.93116" lon="6.49815">
        <ele>1477</ele>
        <time>2021-09-07T23:35:54+02:00</time>
      </trkpt>
      <trkpt lat="45.93104" lon="6.49785">
        <ele>1476</ele>
        <time>2021-09-07T23:35:59+02:00</time>
      </trkpt>
      <trkpt lat="45.93079" lon="6.4975">
        <ele>1472</ele>
        <time>2021-09-07T23:36:04+02:00</time>
      </trkpt>
      <trkpt lat="45.93031" lon="6.49718">
        <ele>1470</ele>
        <time>2021-09-07T23:36:09+02:00</time>
      </trkpt>
      <trkpt lat="45.92978" lon="6.49684">
        <ele>1470</ele>
        <time>2021-09-07T23:36:14+02:00</time>
      </trkpt>
      <trkpt lat="45.92949" lon="6.49649">
        <ele>1469</ele>
        <time>2021-09-07T23:36:19+02:00</time>
      </trkpt>
      <trkpt lat="45.92896" lon="6.49601">
        <ele>1470</ele>
        <time>2021-09-07T23:36:24+02:00</time>
      </trkpt>
      <trkpt lat="45.92861" lon="6.49554">
        <ele>1472</ele>
        <time>2021-09-07T23:36:29+02:00</time>
      </trkpt>
      <trkpt lat="45.92836" lon="6.49523">
        <ele>1478</ele>
        <time>2021-09-07T23:36:34+02:00</time>
      </trkpt>
      <trkpt lat="45.92786" lon="6.49494">
        <ele>1486</ele>
        <time>2021-09-07T23:36:39+02:00</time>
      </trkpt>
      <trkpt lat="45.92751" lon="6.49462">
        <ele>1490</ele>
        <time>2021-09-07T23:36:44+02:00</time>
      </trkpt>
      <trkpt lat="45.92719" lon="6.49374">
        <ele>1489</ele>
        <time>2021-09-07T23:36:49+02:00</time>
      </trkpt>
      <trkpt lat="45.92696" lon="6.49299">
        <ele>1487</ele>
        <time>2021-09-07T23:36:54+02:00</time>
      </trkpt>
      <trkpt lat="45.92682" lon="6.49284">
        <ele>1485</ele>
        <time>2021-09-07T23:36:59+02:00</time>
      </trkpt>
      <trkpt lat="45.92635" lon="6.49251">
        <ele>1487</ele>
        <time>2021-09-07T23:37:04+02:00</time>
      </trkpt>
      <trkpt lat="45.92606" lon="6.49229">
        <ele>1487</ele>
        <time>2021-09-07T23:37:09+02:00</time>
      </trkpt>
      <trkpt lat="45.92539" lon="6.49212">
        <ele>1495</ele>
        <time>2021-09-07T23:37:14+02:00</time>
      </trkpt>
      <trkpt lat="45.92491" lon="6.49191">
        <ele>1493</ele>
        <time>2021-09-07T23:37:19+02:00</time>
      </trkpt>
      <trkpt lat="45.92464" lon="6.49157">
        <ele>1490</ele>
        <time>2021-09-07T23:37:24+02:00</time>
      </trkpt>
      <trkpt lat="45.92439" lon="6.49108">
        <ele>1488</ele>
        <time>2021-09-07T23:37:29+02:00</time>
      </trkpt>
      <trkpt lat="45.92412" lon="6.49116">
        <ele>1484</ele>
        <time>2021-09-07T23:37:34+02:00</time>
      </trkpt>
      <trkpt lat="45.92373" lon="6.49112">
        <ele>1481</ele>
        <time>2021-09-07T23:37:39+02:00</time>
      </trkpt>
      <trkpt lat="45.92335" lon="6.49078">
        <ele>1474</ele>
        <time>2021-09-07T23:37:44+02:00</time>
      </trkpt>
      <trkpt lat="45.923" lon="6.49065">
        <ele>1470</ele>
        <time>2021-09-07T23:37:49+02:00</time>
      </trkpt>
      <trkpt lat="45.92254" lon="6.49006">
        <ele>1461</ele>
        <time>2021-09-07T23:37:54+02:00</time>
      </trkpt>
      <trkpt lat="45.92229" lon="6.4896">
        <ele>1456</ele>
        <time>2021-09-07T23:37:59+02:00</time>
      </trkpt>
      <trkpt lat="45.92185" lon="6.48909">
        <ele>1453</ele>
        <time>2021-09-07T23:38:04+02:00</time>
      </trkpt>
      <trkpt lat="45.92158" lon="6.48868">
        <ele>1455</ele>
        <time>2021-09-07T23:38:09+02:00</time>
      </trkpt>
      <trkpt lat="45.92176" lon="6.48832">
        <ele>1454</ele>
        <time>2021-09-07T23:38:14+02:00</time>
      </trkpt>
      <trkpt lat="45.92176" lon="6.48798">
        <ele>1455</ele>
        <time>2021-09-07T23:38:19+02:00</time>
      </trkpt>
      <trkpt lat="45.92147" lon="6.48705">
        <ele>1463</ele>
        <time>2021-09-07T23:38:24+02:00</time>
      </trkpt>
      <trkpt lat="45.92117" lon="6.48654">
        <ele>1470</ele>
        <time>2021-09-07T23:38:29+02:00</time>
      </trkpt>
      <trkpt lat="45.92126" lon="6.486">
        <ele>1470</ele>
        <time>2021-09-07T23:38:34+02:00</time>
      </trkpt>
      <trkpt lat="45.92135" lon="6.48561">
        <ele>1466</ele>
        <time>2021-09-07T23:38:39+02:00</time>
      </trkpt>
      <trkpt lat="45.92123" lon="6.48535">
        <ele>1465</ele>
        <time>2021-09-07T23:38:44+02:00</time>
      </trkpt>
      <trkpt lat="45.92109" lon="6.48534">
        <ele>1467</ele>
        <time>2021-09-07T23:38:49+02:00</time>
      </trkpt>
      <trkpt lat="45.92088" lon="6.48538">
        <ele>1469</ele>
        <time>2021-09-07T23:38:54+02:00</time>
      </trkpt>
      <trkpt lat="45.9208" lon="6.4846">
        <ele>1457</ele>
        <time>2021-09-07T23:38:59+02:00</time>
      </trkpt>
      <trkpt lat="45.92077" lon="6.48389">
        <ele>1450</ele>
        <time>2021-09-07T23:39:04+02:00</time>
      </trkpt>
      <trkpt lat="45.92082" lon="6.48287">
        <ele>1436</ele>
        <time>2021-09-07T23:39:09+02:00</time>
      </trkpt>
      <trkpt lat="45.92068" lon="6.48208">
        <ele>1428</ele>
        <time>2021-09-07T23:39:14+02:00</time>
      </trkpt>
      <trkpt lat="45.92058" lon="6.4808">
        <ele>1418</ele>
        <time>2021-09-07T23:39:19+02:00</time>
      </trkpt>
      <trkpt lat="45.92052" lon="6.48072">
        <ele>1417</ele>
        <time>2021-09-07T23:39:24+02:00</time>
      </trkpt>
      <trkpt lat="45.92037" lon="6.48053">
        <ele>1416</ele>
        <time>2021-09-07T23:39:29+02:00</time>
      </trkpt>
      <trkpt lat="45.92025" lon="6.48025">
        <ele>1415</ele>
        <time>2021-09-07T23:39:34+02:00</time>
      </trkpt>
    </trkseg>
  </trk>
</gpx>